TimeCST,TemperatureF,Dew PointF,Humidity,Sea Level PressureIn,VisibilityMPH,Wind Direction,Wind SpeedMPH,Gust SpeedMPH,PrecipitationIn,Events,Conditions,WindDirDegrees,DateUTC
12:16 AM,14.4,5.9,69,30.05,10.0,SSW,8.1,-,N/A,,Scattered Clouds,200,2013-01-25 06:16:00
12:36 AM,14.5,5.9,69,30.04,10.0,SSW,10.4,18.4,N/A,,Scattered Clouds,210,2013-01-25 06:36:00
12:55 AM,14.4,5.9,69,30.02,10.0,SW,8.1,17.3,N/A,,Clear,220,2013-01-25 06:55:00
1:16 AM,14.0,5.9,70,30.01,10.0,SSW,8.1,-,N/A,,Clear,210,2013-01-25 07:16:00
1:36 AM,13.8,6.4,72,30.00,10.0,SW,16.1,23.0,N/A,,Clear,220,2013-01-25 07:36:00
1:55 AM,13.8,6.4,72,30.00,10.0,SW,15.0,21.9,N/A,,Clear,230,2013-01-25 07:55:00
2:16 AM,13.6,6.6,74,30.02,10.0,SW,10.4,18.4,N/A,,Scattered Clouds,230,2013-01-25 08:16:00
2:36 AM,14.5,7.3,73,30.01,10.0,SW,17.3,20.7,N/A,,Overcast,230,2013-01-25 08:36:00
2:55 AM,14.9,7.7,73,30.01,10.0,SW,15.0,-,N/A,,Overcast,230,2013-01-25 08:55:00
3:16 AM,15.8,8.6,73,30.00,10.0,WSW,17.3,23.0,N/A,,Overcast,240,2013-01-25 09:16:00
3:36 AM,16.5,9.5,74,30.00,10.0,WSW,15.0,19.6,N/A,,Overcast,240,2013-01-25 09:36:00
3:56 AM,16.7,9.9,74,30.00,10.0,WSW,17.3,20.7,N/A,,Overcast,240,2013-01-25 09:56:00
4:15 AM,16.9,10.2,75,29.99,10.0,WSW,13.8,24.2,N/A,,Overcast,240,2013-01-25 10:15:00
4:36 AM,18.1,11.3,75,29.99,10.0,WSW,17.3,-,N/A,,Overcast,250,2013-01-25 10:36:00
4:56 AM,18.3,11.8,76,29.98,10.0,West,17.3,-,N/A,,Overcast,260,2013-01-25 10:56:00
5:16 AM,18.3,12.2,77,29.99,10.0,West,17.3,21.9,N/A,,Overcast,260,2013-01-25 11:16:00
5:35 AM,18.5,12.9,79,29.99,10.0,West,15.0,21.9,N/A,,Overcast,260,2013-01-25 11:35:00
5:55 AM,19.4,14.4,81,29.99,10.0,West,13.8,-,N/A,,Overcast,260,2013-01-25 11:55:00
6:16 AM,19.0,14.0,81,29.99,10.0,WSW,16.1,20.7,N/A,,Overcast,250,2013-01-25 12:16:00
6:36 AM,20.5,16.0,83,29.99,10.0,West,16.1,21.9,N/A,,Overcast,280,2013-01-25 12:36:00
6:56 AM,22.1,17.6,83,29.99,10.0,West,13.8,-,N/A,,Overcast,270,2013-01-25 12:56:00
7:36 AM,22.8,18.9,85,30.02,10.0,NW,17.3,-,N/A,,Overcast,310,2013-01-25 13:36:00
7:55 AM,22.8,18.0,82,30.02,10.0,WNW,23.0,27.6,N/A,,Overcast,300,2013-01-25 13:55:00
8:16 AM,22.1,16.9,80,30.03,10.0,NW,21.9,32.2,N/A,,Overcast,310,2013-01-25 14:16:00
8:35 AM,21.6,16.5,81,30.04,10.0,NW,18.4,25.3,N/A,,Overcast,310,2013-01-25 14:35:00
8:55 AM,21.0,16.3,82,30.05,3.0,NW,23.0,32.2,N/A,Snow,Light Snow,310,2013-01-25 14:55:00
9:16 AM,19.4,14.2,80,30.06,2.5,NW,26.5,33.4,N/A,Snow,Light Snow,310,2013-01-25 15:16:00
9:35 AM,18.0,12.2,78,30.07,10.0,NW,26.5,32.2,N/A,,Mostly Cloudy,310,2013-01-25 15:35:00
9:56 AM,16.2,8.8,73,30.08,10.0,NW,20.7,28.8,N/A,,Scattered Clouds,320,2013-01-25 15:56:00
10:15 AM,14.9,6.4,69,30.10,10.0,NW,21.9,26.5,N/A,,Clear,320,2013-01-25 16:15:00
10:35 AM,13.1,2.8,64,30.12,10.0,NW,20.7,28.8,N/A,,Clear,320,2013-01-25 16:35:00
10:56 AM,12.6,1.9,63,30.12,10.0,NW,19.6,24.2,N/A,,Clear,320,2013-01-25 16:56:00
11:16 AM,12.6,1.6,62,30.14,10.0,NW,21.9,27.6,N/A,,Clear,320,2013-01-25 17:16:00
11:36 AM,12.0,0.5,60,30.15,10.0,NW,19.6,27.6,N/A,,Clear,320,2013-01-25 17:36:00
11:56 AM,11.7,0.9,62,30.16,10.0,WNW,18.4,-,N/A,,Clear,300,2013-01-25 17:56:00
12:15 PM,11.8,0.1,59,30.16,10.0,NNW,18.4,26.5,N/A,,Clear,330,2013-01-25 18:15:00
12:35 PM,11.3,0.3,61,30.17,10.0,NNW,18.4,-,N/A,,Clear,330,2013-01-25 18:35:00
12:56 PM,11.1,0.3,62,30.17,10.0,NW,16.1,20.7,N/A,,Clear,320,2013-01-25 18:56:00
1:15 PM,11.3,1.0,63,30.17,10.0,NW,15.0,-,N/A,,Clear,320,2013-01-25 19:15:00
1:35 PM,11.3,0.7,62,30.18,10.0,NW,18.4,21.9,N/A,,Clear,320,2013-01-25 19:35:00
1:56 PM,11.1,0.1,61,30.18,10.0,NNW,15.0,-,N/A,,Clear,330,2013-01-25 19:56:00
2:16 PM,11.1,0.5,62,30.18,10.0,NNW,13.8,-,N/A,,Clear,330,2013-01-25 20:16:00
2:35 PM,10.9,1.4,65,30.18,10.0,NNW,12.7,-,N/A,,Clear,330,2013-01-25 20:35:00
2:55 PM,10.9,0.3,62,30.18,10.0,NNW,15.0,-,N/A,,Clear,330,2013-01-25 20:55:00
3:16 PM,10.8,0.9,64,30.19,10.0,NW,13.8,-,N/A,,Clear,320,2013-01-25 21:16:00
3:35 PM,10.0,0.5,65,30.20,10.0,NNW,9.2,-,N/A,,Clear,340,2013-01-25 21:35:00
3:56 PM,9.5,0.3,66,30.21,10.0,NNW,10.4,17.3,N/A,,Clear,330,2013-01-25 21:56:00
4:15 PM,9.1,-0.2,66,30.21,10.0,NNW,12.7,-,N/A,,Clear,340,2013-01-25 22:15:00
4:36 PM,8.4,-0.8,66,30.22,10.0,NNW,11.5,-,N/A,,Clear,330,2013-01-25 22:36:00
4:55 PM,7.7,-1.1,67,30.23,10.0,NNW,10.4,-,N/A,,Clear,340,2013-01-25 22:55:00
5:16 PM,7.0,-1.3,69,30.23,10.0,North,9.2,-,N/A,,Clear,350,2013-01-25 23:16:00
5:35 PM,6.4,-1.5,70,30.24,10.0,NNW,5.8,-,N/A,,Clear,340,2013-01-25 23:35:00
5:55 PM,5.9,-2.2,69,30.24,10.0,NNW,6.9,-,N/A,,Clear,330,2013-01-25 23:55:00
6:16 PM,5.0,-2.4,72,30.25,10.0,NNW,5.8,-,N/A,,Clear,330,2013-01-26 00:16:00
6:36 PM,4.8,-2.4,72,30.26,10.0,NNW,4.6,-,N/A,,Clear,330,2013-01-26 00:36:00
6:56 PM,4.5,-2.6,73,30.27,10.0,NNW,5.8,-,N/A,,Clear,340,2013-01-26 00:56:00
7:15 PM,4.1,-3.1,72,30.27,10.0,NNW,4.6,-,N/A,,Clear,330,2013-01-26 01:15:00
7:36 PM,3.7,-3.1,73,30.27,10.0,NNW,4.6,-,N/A,,Clear,340,2013-01-26 01:36:00
7:55 PM,3.4,-3.3,74,30.27,10.0,NNW,4.6,-,N/A,,Clear,340,2013-01-26 01:55:00
8:15 PM,3.0,-3.3,75,30.28,10.0,NNW,4.6,-,N/A,,Clear,330,2013-01-26 02:15:00
8:36 PM,2.7,-3.5,76,30.28,10.0,Calm,Calm,-,N/A,,Clear,0,2013-01-26 02:36:00
8:56 PM,2.3,-3.5,77,30.28,10.0,NNW,3.5,-,N/A,,Clear,340,2013-01-26 02:56:00
9:15 PM,1.9,-3.6,77,30.28,10.0,Calm,Calm,-,N/A,,Clear,0,2013-01-26 03:15:00
9:36 PM,1.4,-3.6,79,30.28,10.0,Calm,Calm,-,N/A,,Clear,0,2013-01-26 03:36:00
9:55 PM,1.2,-3.5,81,30.29,10.0,Calm,Calm,-,N/A,,Clear,0,2013-01-26 03:55:00
10:16 PM,0.5,-4.0,81,30.29,10.0,Calm,Calm,-,N/A,,Clear,0,2013-01-26 04:16:00
10:36 PM,0.5,-3.5,83,30.28,10.0,Calm,Calm,-,N/A,,Clear,0,2013-01-26 04:36:00
10:55 PM,1.0,-3.3,82,30.27,10.0,Calm,Calm,-,N/A,,Clear,0,2013-01-26 04:55:00
11:16 PM,-0.0,-3.6,85,30.28,10.0,Calm,Calm,-,N/A,,Clear,0,2013-01-26 05:16:00
11:36 PM,0.1,-3.6,84,30.30,10.0,Calm,Calm,-,N/A,,Clear,0,2013-01-26 05:36:00
11:56 PM,-0.4,-4.0,85,30.31,10.0,Calm,Calm,-,N/A,,Clear,0,2013-01-26 05:56:00